Temp
49 45 42 46 49 47 44 42 40 43 49 47 46 47 52 55 52 53 54 54 55 57 64 61 62 63 62 63 63 64 64 64 64 62 61 60 61 62 61 62 63 63 64 63
44 42 49 51 49 46 44 41 41 44 47 46 45 45 50 51 52 55 58 59 57 59 60 59 59 60 61 62 63 63 64 65 64 65 65 64 64 62 65 63 62 63 63 63
43 46 51 48 45 44 44 42 42 44 45 45 42 43 48 50 52 56 55 61 62 61 61 62 58 59 61 61 62 63 64 65 65 66 64 61 61 59 59 60 61 61 63 63
45 50 47 45 44 47 40 47 45 43 42 36 42 33 43 47 48 50 55 54 58 60 60 63 60 59 60 61 64 64 64 64 65 66 65 63 63 61 63 63 64 63 62 62
42 44 44 42 44 48 43 49 45 44 41 39 39 36 41 42 43 48 54 54 57 59 60 62 61 62 62 63 62 63 64 64 65 65 66 65 64 65 66 63 61 62 61 62
43 48 48 46 48 50 48 44 43 42 40 33 40 38 35 43 47 50 56 58 57 56 57 60 62 60 61 61 61 62 62 62 64 64 64 64 63 63 62 61 61 61 62 61
42 43 46 49 42 46 46 40 33 30 30 30 34 34 43 45 49 52 56 57 56 54 55 56 55 55 58 58 59 60 61 61 62 63 63 64 64 64 63 63 62 61 60 59
35 33 43 47 45 42 42 42 34 26 26 28 33 32 39 49 57 58 55 55 52 54 53 53 55 55 57 58 59 60 60 61 61 62 63 63 64 64 64 64 63 62 62 62
35 35 42 45 47 49 41 37 42 33 18 24 31 36 45 45 49 50 50 52 55 54 53 53 55 54 53 54 57 59 60 60 61 61 62 63 63 63 63 63 63 63 62 61
37 30 38 42 48 46 43 47 35 33 26 21 29 30 38 40 46 51 51 53 56 51 51 51 52 53 52 52 55 58 60 60 61 61 62 62 62 62 63 62 60 61 61 60
39 37 36 40 39 41 41 40 40 39 33 26 22 33 41 49 52 51 52 53 52 52 52 52 51 52 51 50 51 54 56 58 58 58 60 60 60 60 61 60 60 60 60 58
41 38 32 34 39 41 44 42 43 35 31 31 29 37 46 46 48 47 50 50 50 50 50 49 49 50 50 49 48 50 52 54 55 55 56 57 56 56 57 58 58 57 57 57
40 34 23 30 37 41 39 42 45 44 37 31 28 37 47 45 46 49 47 50 49 49 49 48 47 48 49 49 48 48 49 50 51 52 53 52 53 53 54 55 56 56 57 57
47 33 33 30 31 35 35 40 43 41 34 35 36 40 49 45 45 49 50 49 49 48 48 47 46 47 47 47 47 46 47 47 47 49 50 51 52 53 53 53 53 53 54 54
40 32 32 36 33 34 37 37 39 39 40 35 40 41 47 52 52 55 55 52 56 58 49 48 46 46 46 46 46 45 45 45 45 45 45 45 45 46 46 47 47 46 47 48
37 28 32 31 33 35 33 37 38 38 38 36 41 41 53 52 51 48 49 50 53 56 49 49 47 47 46 46 46 45 44 43 43 44 44 43 41 40 42 42 41 41 40 41
36 32 27 27 30 30 27 33 36 39 42 41 35 42 49 48 49 47 50 52 55 57 50 50 48 48 47 47 46 44 43 42 42 40 39 38 37 37 38 39 39 39 39 40
31 29 30 23 28 21 34 38 41 39 43 47 46 48 51 52 54 52 55 56 57 52 53 52 48 48 48 45 45 44 42 41 39 38 37 36 37 36 35 35 35 35 36 36
38 32 25 17 15 28 34 37 35 34 38 45 44 47 50 52 47 52 58 58 58 58 59 61 58 51 48 45 44 41 38 37 37 36 36 36 36 34 33 33 33 34 33 33
35 36 30 17 11 10 33 41 43 42 31 48 47 47 48 46 42 50 56 55 57 58 60 61 47 45 46 42 41 38 37 36 36 36 36 35 34 33 32 32 32 31 33 33
27 28 25 25 21 21 35 40 42 27 36 45 49 50 50 46 52 58 61 59 58 57 57 44 43 47 48 42 38 38 37 37 36 34 32 30 30 31 32 30 29 32 33 32
24 24 24 27 23 21 41 37 35 45 49 48 49 50 50 53 54 55 57 57 56 48 43 41 42 44 40 39 39 37 37 35 33 31 30 28 28 30 29 28 27 32 32 30
23 32 28 29 28 39 45 40 41 38 39 40 38 42 46 49 52 54 54 54 55 44 43 39 41 38 36 38 41 38 37 31 30 29 28 27 27 27 27 27 26 26 26 27
30 34 32 34 38 38 42 40 29 29 29 31 33 35 40 42 47 49 51 48 44 43 39 36 35 35 34 34 36 37 32 31 31 29 27 26 26 25 25 27 27 27 26 26
29 31 31 33 39 39 41 28 25 25 28 27 29 31 31 36 39 41 41 40 39 37 30 33 37 37 36 31 30 31 30 31 30 29 27 27 27 27 25 26 26 26 24 29
22 21 26 30 18 18 25 25 23 23 22 22 25 26 30 32 33 38 38 39 37 35 30 31 29 29 29 30 29 29 30 32 30 27 27 27 27 27 27 28 28 33 33 33
MSLP
1019.52 1020.09 1019.76 1019.86 1020.64 1021.42 1021.41 1021.81 1021.32 1020.99 1020.29 1020.21 1019.80 1019.36 1018.80 1018.51 1018.83 1018.65 1018.36 1018.30 1018.13 1018.02 1017.15 1017.50 1017.73 1018.10 1018.50 1018.97 1019.44 1019.68 1019.94 1020.35 1021.00 1021.67 1022.11 1022.42 1022.46 1022.80 1023.05 1023.20 1023.47 1023.96 1024.22 1024.46
1019.38 1018.48 1018.85 1019.74 1020.51 1021.23 1021.63 1021.91 1021.63 1021.13 1020.66 1020.76 1020.00 1019.40 1018.47 1018.36 1018.11 1017.75 1017.52 1017.33 1017.28 1017.18 1016.87 1016.84 1017.00 1017.48 1017.54 1017.78 1018.34 1018.59 1018.94 1019.47 1019.91 1020.33 1020.68 1021.15 1021.49 1021.78 1021.76 1022.26 1022.68 1022.95 1023.29 1023.55
1018.35 1018.61 1018.59 1019.38 1020.45 1021.07 1021.54 1021.77 1021.82 1021.50 1021.19 1020.85 1020.49 1019.17 1017.95 1017.37 1016.98 1016.60 1016.41 1015.99 1015.72 1015.69 1015.81 1015.75 1016.09 1016.16 1016.75 1016.69 1016.76 1017.38 1017.96 1018.30 1018.87 1019.42 1020.11 1020.72 1021.18 1021.52 1021.58 1021.78 1021.94 1022.05 1022.51 1022.97
1018.60 1018.27 1018.53 1019.25 1019.42 1020.07 1020.68 1020.64 1021.42 1021.67 1021.83 1021.64 1021.15 1019.22 1017.32 1016.87 1016.52 1015.92 1015.27 1015.01 1014.42 1014.45 1014.49 1014.35 1014.64 1015.14 1015.35 1015.19 1015.48 1016.12 1016.53 1017.14 1017.74 1018.39 1018.97 1019.46 1019.92 1020.32 1020.36 1020.76 1020.98 1021.30 1021.84 1022.18
1018.36 1018.39 1018.74 1019.13 1019.10 1019.77 1020.08 1020.27 1020.88 1021.24 1021.91 1022.08 1021.33 1021.24 1016.61 1016.40 1015.90 1015.19 1014.22 1013.75 1013.36 1013.11 1013.24 1013.28 1013.32 1013.25 1013.25 1014.13 1014.59 1014.89 1015.48 1016.12 1016.64 1017.13 1017.51 1018.14 1018.68 1018.89 1019.38 1019.92 1020.31 1020.58 1020.80 1021.09
1018.04 1018.06 1018.29 1018.36 1018.80 1019.04 1019.78 1020.39 1021.04 1021.64 1022.03 1021.67 1020.42 1020.70 1016.68 1015.82 1014.86 1014.09 1013.04 1012.47 1012.60 1012.81 1012.67 1012.38 1012.55 1012.92 1012.94 1013.29 1013.83 1014.31 1014.76 1015.04 1015.57 1016.12 1016.55 1016.88 1017.25 1017.73 1018.49 1018.92 1019.29 1019.66 1019.94 1020.23
1017.97 1018.10 1018.22 1018.09 1018.85 1019.29 1019.41 1020.21 1021.38 1021.95 1022.23 1020.63 1019.93 1019.85 1016.06 1014.78 1013.96 1013.25 1012.37 1011.91 1011.86 1012.27 1012.41 1012.26 1012.56 1012.86 1012.81 1012.72 1012.78 1013.12 1013.66 1014.16 1014.65 1015.15 1015.56 1015.81 1016.12 1016.76 1017.01 1017.62 1018.20 1018.70 1019.18 1019.44
1017.73 1018.21 1017.88 1017.58 1017.78 1018.24 1019.14 1019.64 1020.15 1020.99 1021.70 1020.78 1020.33 1018.20 1014.60 1013.40 1012.46 1012.03 1011.86 1011.72 1011.82 1011.95 1011.98 1012.07 1012.11 1012.16 1012.21 1012.16 1012.25 1012.43 1012.62 1013.01 1013.72 1014.22 1014.56 1014.94 1015.38 1015.89 1016.32 1016.78 1017.20 1017.63 1018.09 1018.42
1017.45 1017.70 1017.20 1017.37 1017.74 1017.87 1018.79 1019.25 1019.72 1020.81 1021.83 1021.42 1019.41 1016.62 1014.33 1013.15 1012.23 1011.92 1011.71 1011.61 1011.15 1011.25 1011.56 1011.85 1011.78 1011.80 1011.81 1011.89 1011.76 1011.66 1011.86 1012.15 1012.50 1012.95 1013.65 1014.28 1014.78 1015.29 1015.57 1016.06 1016.60 1017.03 1017.34 1017.58
1017.18 1017.61 1017.53 1017.55 1017.86 1018.05 1018.06 1018.47 1019.80 1020.45 1021.07 1020.85 1018.29 1016.52 1013.96 1012.97 1012.44 1011.64 1011.61 1011.24 1010.87 1011.42 1011.58 1011.41 1011.31 1011.10 1011.18 1011.13 1011.11 1011.30 1011.26 1011.34 1011.57 1012.09 1012.64 1013.24 1013.78 1014.33 1014.90 1015.49 1015.81 1016.18 1016.49 1016.96
1017.29 1017.33 1018.25 1018.03 1017.66 1017.12 1018.02 1018.12 1018.72 1019.37 1020.01 1019.60 1017.94 1014.48 1012.36 1011.59 1011.04 1011.11 1011.10 1011.17 1011.12 1010.93 1010.99 1010.73 1010.52 1010.22 1010.60 1010.64 1010.58 1010.60 1010.81 1011.10 1011.45 1011.79 1012.23 1012.77 1013.20 1013.69 1014.25 1014.70 1015.13 1015.59 1016.03 1016.33
1017.14 1017.76 1018.29 1018.27 1017.80 1017.45 1017.19 1016.96 1017.74 1018.31 1018.18 1018.53 1017.54 1013.08 1011.29 1011.10 1010.99 1011.13 1010.94 1010.89 1010.93 1010.97 1010.63 1010.62 1010.45 1010.26 1010.33 1010.69 1010.52 1010.52 1010.55 1010.70 1010.97 1011.42 1012.01 1012.52 1013.02 1013.43 1013.86 1014.21 1014.59 1015.03 1015.42 1015.75
1016.56 1017.26 1018.16 1018.62 1018.41 1017.75 1016.98 1016.69 1016.63 1016.98 1017.35 1017.39 1016.78 1011.91 1010.21 1010.79 1011.08 1010.79 1010.86 1010.47 1010.72 1010.83 1010.44 1010.42 1010.72 1010.70 1010.21 1010.61 1010.79 1010.88 1010.88 1010.91 1011.12 1011.38 1011.73 1012.22 1012.68 1013.15 1013.53 1013.98 1014.37 1014.74 1015.09 1015.41
1016.24 1016.87 1017.02 1016.82 1016.91 1016.75 1016.98 1016.37 1016.58 1017.06 1016.93 1015.76 1015.29 1011.59 1008.76 1010.92 1010.88 1010.81 1010.47 1010.16 1010.05 1010.14 1010.50 1010.41 1010.49 1010.60 1010.71 1010.98 1010.75 1010.73 1010.70 1010.70 1010.93 1011.21 1011.55 1011.92 1012.21 1012.48 1012.85 1013.33 1013.85 1014.33 1014.74 1015.14
1016.67 1017.04 1017.36 1017.03 1017.32 1017.32 1017.19 1016.88 1016.64 1016.18 1015.29 1016.01 1012.36 1013.29 1007.85 1009.68 1010.32 1010.52 1010.49 1010.07 1009.57 1009.40 1009.84 1010.21 1010.61 1011.04 1010.65 1010.79 1011.00 1010.97 1010.77 1010.78 1010.96 1011.27 1011.55 1011.81 1012.28 1012.67 1013.14 1013.60 1014.00 1014.36 1014.83 1015.36
1017.40 1017.63 1017.79 1017.92 1017.96 1017.76 1017.27 1016.81 1016.49 1015.77 1015.75 1015.68 1013.62 1012.79 1006.70 1009.44 1009.94 1010.13 1010.19 1009.88 1009.31 1009.01 1009.44 1009.79 1010.18 1010.37 1010.76 1010.88 1010.84 1011.00 1011.08 1011.10 1011.28 1011.61 1011.95 1012.35 1012.81 1013.38 1013.67 1014.08 1014.52 1014.90 1015.27 1015.76
1017.93 1018.15 1018.53 1017.65 1018.21 1018.17 1017.31 1014.80 1015.19 1014.85 1014.34 1013.96 1013.37 1009.08 1007.48 1008.66 1009.62 1009.95 1009.58 1009.11 1008.47 1008.52 1008.63 1008.95 1009.16 1009.36 1009.54 1009.84 1010.34 1010.81 1011.27 1011.55 1011.64 1011.94 1012.42 1012.98 1013.42 1013.81 1014.20 1014.52 1014.96 1015.42 1015.79 1016.11
1017.74 1018.35 1018.82 1018.79 1018.67 1017.13 1014.48 1013.82 1013.42 1013.26 1012.40 1012.45 1012.03 1009.64 1008.07 1007.10 1009.55 1008.78 1007.60 1006.76 1007.49 1008.15 1007.81 1007.44 1007.83 1008.24 1008.55 1009.02 1009.64 1010.39 1010.78 1011.61 1011.70 1012.04 1012.58 1013.00 1013.59 1014.03 1014.44 1014.87 1015.29 1015.59 1015.91 1016.36
1016.94 1017.72 1018.48 1018.76 1018.67 1016.63 1014.47 1012.85 1013.06 1012.78 1010.94 1011.17 1010.85 1008.90 1007.24 1008.60 1008.68 1005.69 1004.53 1007.48 1006.76 1006.87 1006.07 1005.67 1005.92 1006.77 1007.58 1008.36 1008.78 1009.42 1010.33 1011.11 1011.89 1011.95 1012.52 1012.99 1013.37 1013.79 1014.30 1015.00 1015.49 1015.66 1016.09 1016.66
1017.20 1017.35 1018.11 1018.33 1018.25 1016.35 1012.23 1011.77 1011.56 1012.16 1010.82 1008.88 1010.05 1008.77 1007.64 1008.52 1008.17 1002.70 1004.43 1004.28 1003.64 1003.94 1003.85 1003.89 1004.78 1005.70 1006.49 1007.36 1008.52 1009.38 1009.77 1010.59 1011.17 1011.36 1012.08 1012.99 1013.45 1013.66 1014.36 1014.92 1015.49 1015.86 1016.30 1016.95
1017.57 1017.57 1017.47 1017.21 1017.20 1015.11 1011.43 1011.28 1011.44 1011.87 1008.87 1008.38 1008.32 1007.80 1006.90 1007.43 1005.68 1002.32 1002.70 1002.87 1003.03 1002.91 1003.02 1003.60 1004.51 1004.94 1005.04 1006.52 1007.62 1008.68 1009.10 1009.78 1010.06 1010.97 1011.72 1012.75 1013.28 1013.75 1014.35 1014.80 1015.39 1015.79 1016.40 1017.03
1016.28 1016.57 1016.35 1016.30 1015.69 1014.26 1009.96 1011.34 1011.33 1008.82 1008.37 1007.71 1007.42 1007.39 1006.62 1005.58 1004.12 1003.03 1001.67 1002.91 1002.68 1002.91 1003.33 1003.48 1004.25 1004.32 1004.70 1005.43 1006.59 1007.60 1008.45 1009.16 1009.69 1010.52 1011.22 1012.53 1013.30 1013.69 1014.29 1014.73 1015.53 1015.63 1016.12 1017.01
1015.33 1013.77 1013.62 1013.69 1012.47 1011.23 1009.06 1010.04 1010.33 1010.69 1010.46 1009.61 1009.00 1008.85 1007.72 1006.13 1004.28 1002.89 1002.29 1002.70 1002.17 1002.46 1002.78 1003.00 1003.48 1003.94 1004.54 1004.92 1005.27 1006.33 1007.21 1008.57 1009.77 1010.50 1011.32 1012.71 1013.30 1013.79 1014.20 1014.52 1015.21 1015.68 1016.11 1016.88
1014.14 1013.22 1013.51 1013.40 1012.24 1011.14 1009.97 1010.32 1011.60 1012.60 1012.42 1011.38 1010.64 1009.68 1008.92 1007.31 1004.96 1003.52 1002.91 1002.61 1002.27 1001.97 1002.06 1002.41 1003.24 1003.73 1004.40 1004.76 1004.97 1005.28 1006.77 1007.67 1009.10 1009.81 1011.06 1012.46 1012.82 1013.61 1014.41 1014.88 1015.13 1015.71 1016.37 1016.89
1014.77 1014.70 1014.28 1013.78 1012.23 1011.95 1011.42 1012.59 1013.75 1013.48 1013.33 1012.85 1012.00 1011.13 1009.75 1008.88 1006.15 1005.02 1003.80 1003.29 1002.64 1002.25 1002.32 1002.70 1003.00 1002.96 1003.50 1004.44 1005.09 1005.82 1006.68 1007.45 1008.86 1009.72 1010.80 1011.79 1012.15 1012.90 1014.13 1015.03 1015.26 1015.60 1016.15 1015.97
1017.09 1017.58 1017.83 1016.54 1016.78 1016.57 1014.52 1014.71 1015.50 1015.22 1014.68 1014.08 1013.14 1010.94 1009.20 1008.83 1007.54 1005.99 1004.44 1003.70 1002.95 1002.75 1002.63 1002.83 1003.01 1003.67 1003.90 1004.50 1005.37 1006.32 1006.94 1007.16 1008.07 1009.46 1010.63 1011.06 1011.60 1012.78 1013.87 1014.71 1015.36 1015.83 1016.07 1016.41
Wind_Speed
7 8 15 10 10 3 4 2 3 3 4 4 7 12 11 8 5 8 8 8 9 11 13 7 11 13 12 12 13 14 14 14 10 6 6 5 7 6 6 8 10 11 10 11
5 17 9 9 9 5 2 1 3 4 2 3 7 12 12 7 7 10 14 14 12 10 10 9 9 11 14 15 16 15 15 14 13 10 8 5 7 6 7 7 9 11 12 12
6 2 13 12 7 9 9 5 4 4 5 3 5 10 14 8 9 12 10 17 14 16 15 14 11 15 13 16 18 16 16 17 15 14 6 3 2 1 4 5 7 10 12 11
2 3 17 14 15 13 14 11 6 6 4 5 3 9 12 4 9 9 16 14 19 17 15 15 11 12 16 19 15 17 18 18 16 16 13 13 11 10 8 7 7 7 11 12
5 9 12 10 6 10 3 7 11 9 10 5 8 7 8 2 6 11 13 15 17 18 16 18 17 18 18 14 15 16 17 16 17 17 17 14 16 11 8 7 9 10 10 13
6 3 8 7 7 15 9 6 5 3 3 10 11 10 5 8 10 8 13 16 12 12 13 15 11 8 11 11 12 13 15 18 17 17 18 18 18 15 10 9 9 8 8 8
4 5 0 6 6 3 6 8 3 3 4 11 4 10 15 6 9 12 16 15 11 8 10 9 9 8 10 13 15 15 16 17 17 18 17 20 19 16 17 13 10 9 7 7
8 5 13 5 6 5 9 6 4 7 7 4 2 11 9 16 15 17 14 12 7 9 7 9 8 9 11 13 13 14 16 17 16 18 19 17 17 11 11 12 10 9 9 8
7 6 3 5 4 10 6 7 2 3 2 2 5 10 8 10 15 9 13 11 17 13 9 10 9 8 9 10 13 15 15 16 16 18 15 15 14 14 12 13 9 9 9 8
3 2 1 6 5 5 6 10 4 2 5 6 7 6 11 2 8 15 12 13 14 4 7 9 9 9 8 9 10 10 13 16 15 15 14 12 13 13 12 9 11 12 10 9
3 5 2 6 8 13 6 7 4 4 3 4 3 8 8 15 13 10 8 8 8 8 9 9 8 8 7 6 7 9 10 11 11 12 12 12 11 12 10 10 10 10 8 8
9 3 4 7 1 2 8 12 13 8 11 3 2 19 4 5 5 5 10 9 8 9 9 9 8 8 6 7 6 7 6 9 9 9 9 10 7 8 9 10 8 7 9 8
10 5 3 2 1 3 8 13 14 15 3 8 4 18 5 2 5 9 9 8 8 9 9 7 6 7 6 6 4 5 5 5 6 7 8 7 7 7 8 7 6 6 7 8
14 3 13 16 5 5 6 13 15 13 6 15 15 32 32 5 6 10 11 8 8 7 8 6 6 7 5 6 5 5 5 5 6 6 7 8 8 8 7 7 6 6 5 5
6 6 6 13 2 2 2 1 13 19 25 12 29 20 38 16 16 17 14 13 19 21 7 7 6 7 5 6 6 5 5 6 5 6 6 6 5 5 5 5 5 5 5 4
2 2 5 6 4 7 12 13 14 16 11 9 25 29 44 12 11 7 9 12 16 20 8 8 8 8 8 7 7 6 5 5 5 6 6 5 6 6 6 6 6 6 6 5
3 3 2 20 5 3 8 19 16 18 16 20 19 37 34 27 16 6 10 15 18 16 9 10 11 11 9 10 8 8 6 4 5 6 6 6 6 6 6 6 5 5 5 5
7 6 4 3 4 11 9 4 13 20 21 18 20 32 35 35 16 15 19 24 20 9 13 12 9 10 10 7 8 6 7 6 6 7 6 6 7 7 7 6 6 6 5 6
5 5 3 3 5 7 13 9 7 6 16 12 21 29 32 20 11 31 30 16 23 19 21 22 15 10 9 10 9 10 8 8 7 7 7 6 7 8 7 7 6 5 7 5
6 3 3 1 6 9 14 7 10 6 19 19 12 22 27 7 13 30 4 16 24 26 26 23 11 8 11 10 10 10 10 9 9 9 8 6 6 8 8 8 7 4 5 7
4 5 14 14 9 9 15 6 8 10 21 4 18 23 24 15 21 33 23 22 16 15 19 7 10 14 17 12 13 12 10 13 8 8 8 7 6 8 9 7 4 7 8 8
9 9 6 8 10 15 18 6 12 18 16 20 17 16 20 24 26 26 29 24 21 14 8 10 11 14 11 15 15 12 13 8 10 11 11 8 8 7 7 10 5 8 9 9
5 11 8 11 9 11 16 10 1 5 5 8 13 9 12 20 24 23 23 19 22 12 12 9 13 9 10 15 17 17 13 13 12 12 11 9 8 8 8 10 9 7 7 8
6 5 9 12 17 19 18 9 9 10 12 14 13 17 15 20 23 19 16 14 11 11 14 9 10 11 12 11 11 8 15 15 15 14 13 10 11 9 7 5 6 7 7 6
6 2 9 13 20 14 16 7 12 22 17 17 18 16 16 19 26 17 12 13 11 9 3 7 12 13 13 11 8 11 14 16 13 13 12 11 10 11 9 5 5 5 2 5
4 3 6 11 8 7 11 11 22 19 18 19 21 28 23 15 23 20 16 15 9 9 5 8 5 6 10 11 10 10 12 15 16 14 11 10 11 10 10 10 9 11 13 15
Wind_Direction
171 174 193 170 223 143 80 237 203 251 267 207 232 252 253 250 226 260 253 245 238 239 257 208 207 208 199 198 197 199 195 195 186 185 196 205 211 209 212 211 207 209 209 209
148 211 186 123 148 147 129 199 254 272 300 230 283 265 260 239 236 222 239 250 238 240 253 234 214 201 200 199 204 204 203 196 197 200 199 194 190 210 213 204 206 208 207 208
184 188 146 153 148 166 206 227 236 230 335 280 308 272 261 240 233 240 226 234 238 232 234 242 211 205 208 202 203 204 202 201 199 200 178 147 134 106 191 204 210 212 210 208
192 158 153 171 183 181 213 183 184 318 352 257 18 288 275 270 245 242 245 225 235 233 232 233 216 205 205 217 201 203 202 201 201 192 196 202 208 213 216 207 212 206 202 209
164 161 163 186 187 177 218 166 188 198 231 282 224 269 267 247 244 254 252 238 238 234 229 232 223 217 209 207 204 203 203 202 200 197 200 205 216 221 217 197 196 208 201 210
180 159 173 186 160 180 146 107 74 79 111 250 243 218 218 224 220 238 244 248 241 235 236 240 242 226 214 198 197 200 200 207 199 198 199 202 209 209 204 200 205 208 207 206
150 156 178 152 113 121 176 135 189 186 185 247 322 200 248 256 245 226 241 251 249 240 244 239 225 216 225 209 202 196 196 208 200 199 200 206 210 207 211 205 208 202 204 207
186 209 187 180 179 173 185 174 178 199 192 253 40 231 250 230 248 252 247 263 277 266 247 255 248 229 228 222 207 200 200 204 197 199 208 210 210 211 215 212 208 213 214 215
175 232 82 185 141 161 165 206 73 128 71 35 217 284 282 237 260 263 258 261 264 253 248 248 259 245 228 222 216 206 202 204 198 201 204 208 209 209 211 213 208 211 214 209
192 112 4 179 129 215 203 130 178 172 197 240 256 268 233 295 249 257 261 260 272 296 262 247 242 242 242 223 219 212 205 202 199 198 200 204 202 205 210 199 205 207 210 203
207 141 39 138 200 188 163 190 186 130 181 206 274 260 215 218 240 254 282 279 277 274 263 260 247 230 242 240 210 204 200 198 195 192 195 196 199 199 198 202 208 208 203 191
183 92 177 208 183 341 224 199 200 212 221 252 192 269 159 216 252 243 267 284 287 274 276 273 258 231 220 246 224 217 197 191 185 175 175 192 183 181 192 203 201 186 205 201
169 211 135 274 298 265 222 216 218 226 30 220 189 263 66 186 284 279 271 297 304 296 298 295 282 251 225 229 254 237 217 200 178 169 172 171 177 180 194 196 197 191 202 209
162 154 206 216 178 145 197 197 214 212 229 249 243 266 264 255 298 300 292 287 284 285 293 286 274 249 250 258 220 207 209 197 176 171 169 171 174 176 174 165 167 170 178 175
168 215 209 247 305 38 133 222 222 224 235 233 253 258 271 249 256 261 271 299 298 292 292 270 265 273 238 225 228 216 194 180 173 168 171 181 166 157 143 142 134 119 120 122
38 236 174 267 219 231 255 256 233 239 260 292 271 266 259 288 297 292 264 271 270 280 261 266 242 230 239 241 226 209 203 183 164 159 161 144 131 118 125 128 134 131 126 121
156 160 221 255 167 141 262 227 238 242 222 224 242 251 286 277 259 298 283 269 272 274 276 237 229 218 213 214 199 207 197 176 163 147 140 141 137 134 138 135 130 122 111 106
166 161 140 252 121 231 239 174 208 225 243 245 254 264 266 270 299 268 257 254 262 253 267 267 228 215 217 198 183 170 160 185 169 156 156 152 151 143 138 132 135 129 124 116
169 140 198 191 188 305 299 248 163 168 268 234 244 262 269 286 297 273 254 262 258 252 252 252 242 207 198 191 181 164 166 168 179 165 169 172 159 144 141 142 141 125 118 113
213 223 162 114 172 208 254 232 187 141 268 242 236 262 269 246 258 267 302 223 230 231 241 245 201 188 187 180 170 168 174 171 189 172 166 160 156 146 144 144 135 121 114 115
151 189 216 236 242 278 261 239 122 161 250 251 219 242 260 251 241 269 277 262 254 239 250 202 187 201 203 170 161 183 169 195 170 146 138 140 148 145 148 135 127 132 121 114
165 170 191 226 235 249 245 106 193 227 252 260 256 241 259 263 264 260 267 267 265 249 222 199 201 210 181 169 168 174 188 169 149 146 135 144 151 145 143 133 135 125 125 122
234 199 203 182 206 224 245 208 284 13 306 319 334 339 293 278 270 269 271 264 264 235 224 195 205 193 185 180 181 178 177 153 148 141 134 145 137 134 138 134 132 124 128 138
252 221 228 251 255 254 267 270 60 10 333 323 325 320 306 292 288 285 277 275 254 238 220 195 179 187 193 191 188 182 153 149 152 144 143 150 139 132 121 118 127 135 144 146
204 166 233 250 255 276 266 81 12 337 330 327 320 309 301 303 293 288 286 279 265 253 196 184 203 200 192 171 155 147 154 151 149 145 147 150 138 135 130 120 137 138 115 149
30 296 242 257 40 311 283 341 332 323 326 323 319 317 308 302 293 295 288 280 260 243 192 186 184 174 167 158 147 151 162 159 148 149 156 154 140 136 134 132 122 115 122 121